Location: Colossi of Memnon
(25.7167°N, 32.6167°E)
Time: 05:02:01
(UTC+00:00)

Meteor 2-17 Rocket - Pass Details

Date: 05 March 2021
Orbit: 935 x 956 km, 82.5° (Epoch: 17 April)

Event Time Altitude Azimuth Distance (km) Brightness Sun altitude
Rises 02:55:18 0° 350° (N) 3,591 7.4 -17.4°
Reaches altitude 10° 02:57:47 10° 348° (NNW) 2,645 6.7 -16.8°
Maximum altitude 03:03:46 68° 267° (W) 1,001 4.3 -15.5°
Drops below altitude 10° 03:09:45 10° 185° (S) 2,642 6.7 -14.1°
Sets 03:12:14 0° 183° (S) 3,586 7.4 -13.6°
